When you browse on this site, cookies collect data to enhance your experience and personalize the content and advertising you see.
Visit our Privacy Policy to learn more. By continuing to use the site, you agree to this use of cookies and data.
  • în România
  • Lista ţărilor
  • Pe 7 zile
  • Temperatura apei
  • Hartă satelitară
  • Meteo pe hartă
  • Widget-uri
  • user-avatar
    Intrare

    Meteo pe oră la Bedford

    Astăzi, 22 Ianuarie, Marţi

    Timp Temperatura Precipitaţii Vânt Presiune Umiditate
    00:00 +3°C° 0 mm 6 m/s 752 mmHg 89%
    01:00 +3°C° 1.3 mm 6 m/s 751 mmHg 90%
    02:00 +3°C° 1.3 mm 6 m/s 750 mmHg 91%
    03:00 +3°C° 1.3 mm 6 m/s 749 mmHg 92%
    04:00 +2°C° 0.1 mm 5 m/s 749 mmHg 91%
    05:00 0°C° 0.1 mm 4 m/s 748 mmHg 91%
    06:00 -1°C° 0.1 mm 4 m/s 748 mmHg 90%
    07:00 -1°C° 0 mm 4 m/s 748 mmHg 89%
    08:00 -1°C° 0 mm 4 m/s 748 mmHg 89%
    09:00 -1°C° 0 mm 4 m/s 748 mmHg 89%
    10:00 0°C° 0 mm 4 m/s 748 mmHg 85%
    11:00 +1°C° 0 mm 4 m/s 748 mmHg 80%
    12:00 +3°C° 0 mm 4 m/s 747 mmHg 76%
    13:00 +3°C° 0.1 mm 4 m/s 747 mmHg 78%
    14:00 +3°C° 0.1 mm 3 m/s 747 mmHg 79%
    15:00 +4°C° 0.1 mm 2 m/s 746 mmHg 81%
    16:00 +2°C° 0.1 mm 3 m/s 746 mmHg 83%
    17:00 +1°C° 0.1 mm 3 m/s 746 mmHg 86%
    18:00 +1°C° 0.1 mm 3 m/s 745 mmHg 88%
    19:00 0°C° 0 mm 3 m/s 745 mmHg 89%
    20:00 0°C° 0 mm 3 m/s 745 mmHg 90%
    21:00 -1°C° 0 mm 3 m/s 745 mmHg 90%
    22:00 -1°C° 0 mm 3 m/s 745 mmHg 91%
    23:00 -2°C° 0 mm 3 m/s 745 mmHg 92%

    Mâine, 23 Ianuarie, Miercuri

    Timp Temperatura Precipitaţii Vânt Presiune Umiditate
    00:00 -2°C° 0 mm 3 m/s 745 mmHg 92%
    01:00 -2°C° 0 mm 3 m/s 745 mmHg 92%
    02:00 -2°C° 0 mm 3 m/s 745 mmHg 92%
    03:00 -2°C° 0 mm 3 m/s 745 mmHg 92%
    04:00 -2°C° 0 mm 3 m/s 745 mmHg 92%
    05:00 -2°C° 0 mm 3 m/s 746 mmHg 91%
    06:00 -2°C° 0 mm 3 m/s 746 mmHg 91%
    07:00 -2°C° 0 mm 3 m/s 746 mmHg 89%
    08:00 -3°C° 0 mm 4 m/s 747 mmHg 86%
    09:00 -3°C° 0 mm 4 m/s 748 mmHg 84%
    10:00 -2°C° 0 mm 4 m/s 748 mmHg 79%
    11:00 -1°C° 0 mm 4 m/s 749 mmHg 74%
    12:00 0°C° 0 mm 5 m/s 750 mmHg 69%
    13:00 +1°C° 0 mm 4 m/s 750 mmHg 72%
    14:00 +1°C° 0 mm 4 m/s 750 mmHg 74%
    15:00 +1°C° 0 mm 4 m/s 751 mmHg 77%
    16:00 0°C° 0 mm 4 m/s 751 mmHg 81%
    17:00 -1°C° 0 mm 4 m/s 752 mmHg 85%
    18:00 -1°C° 0 mm 3 m/s 753 mmHg 90%
    19:00 -1°C° 0 mm 3 m/s 753 mmHg 90%
    20:00 -2°C° 0 mm 3 m/s 754 mmHg 90%
    21:00 -2°C° 0 mm 3 m/s 754 mmHg 91%
    22:00 -2°C° 0 mm 2 m/s 755 mmHg 90%
    23:00 -2°C° 0 mm 2 m/s 755 mmHg 90%

    Poimâine, 24 Ianuarie, Joi

    Timp Temperatura Precipitaţii Vânt Presiune Umiditate
    00:00 -2°C° 0 mm 2 m/s 755 mmHg 90%
    01:00 -2°C° 0 mm 2 m/s 756 mmHg 88%
    02:00 -2°C° 0 mm 2 m/s 756 mmHg 87%
    03:00 -2°C° 0 mm 2 m/s 757 mmHg 85%
    04:00 -2°C° 0 mm 2 m/s 757 mmHg 83%
    05:00 -2°C° 0 mm 2 m/s 757 mmHg 81%
    06:00 0°C° 0 mm 1 m/s 757 mmHg 79%
    07:00 0°C° 0 mm 1 m/s 758 mmHg 77%
    08:00 0°C° 0 mm 1 m/s 758 mmHg 75%
    09:00 +1°C° 0 mm 1 m/s 758 mmHg 73%
    10:00 +1°C° 0 mm 2 m/s 759 mmHg 71%
    11:00 +2°C° 0 mm 2 m/s 759 mmHg 69%
    12:00 +4°C° 0 mm 2 m/s 759 mmHg 67%
    13:00 +4°C° 0 mm 2 m/s 759 mmHg 70%
    14:00 +4°C° 0 mm 2 m/s 759 mmHg 73%
    15:00 +4°C° 0 mm 2 m/s 759 mmHg 76%
    16:00 +4°C° 0 mm 2 m/s 759 mmHg 80%
    17:00 +2°C° 0 mm 3 m/s 759 mmHg 84%
    18:00 +2°C° 0 mm 3 m/s 759 mmHg 88%
    19:00 +2°C° 0.3 mm 3 m/s 759 mmHg 90%
    20:00 +1°C° 0.3 mm 4 m/s 758 mmHg 91%
    21:00 +1°C° 0.3 mm 4 m/s 758 mmHg 92%
    22:00 +1°C° 0.1 mm 4 m/s 758 mmHg 94%
    23:00 +2°C° 0.1 mm 3 m/s 758 mmHg 95%

    25 Ianuarie, Vineri

    Timp Temperatura Precipitaţii Vânt Presiune Umiditate
    00:00 +3°C° 0.1 mm 3 m/s 758 mmHg 97%
    01:00 +3°C° 0.1 mm 3 m/s 758 mmHg 97%
    02:00 +4°C° 0.1 mm 3 m/s 757 mmHg 97%
    03:00 +5°C° 0.1 mm 2 m/s 757 mmHg 98%
    04:00 +5°C° 0 mm 3 m/s 757 mmHg 97%
    05:00 +5°C° 0 mm 3 m/s 757 mmHg 97%
    06:00 +5°C° 0 mm 3 m/s 757 mmHg 97%
    07:00 +5°C° 0 mm 3 m/s 757 mmHg 97%
    08:00 +5°C° 0 mm 3 m/s 757 mmHg 97%
    09:00 +5°C° 0 mm 3 m/s 757 mmHg 96%
    10:00 +6°C° 0 mm 4 m/s 757 mmHg 94%
    11:00 +7°C° 0 mm 4 m/s 757 mmHg 91%
    12:00 +7°C° 0 mm 4 m/s 757 mmHg 89%
    13:00 +7°C° 0 mm 4 m/s 757 mmHg 89%
    14:00 +7°C° 0 mm 4 m/s 756 mmHg 89%
    15:00 +8°C° 0 mm 3 m/s 756 mmHg 89%
    16:00 +6°C° 0 mm 4 m/s 755 mmHg 90%
    17:00 +6°C° 0 mm 4 m/s 755 mmHg 91%
    18:00 +5°C° 0 mm 4 m/s 754 mmHg 91%
    19:00 +5°C° 0.1 mm 5 m/s 754 mmHg 92%
    20:00 +6°C° 0.1 mm 5 m/s 753 mmHg 93%
    21:00 +5°C° 0.1 mm 6 m/s 752 mmHg 94%
    22:00 +5°C° 0.8 mm 6 m/s 751 mmHg 94%
    23:00 +7°C° 0.8 mm 6 m/s 751 mmHg 94%

    26 Ianuarie, Sâmbătă

    Timp Temperatura Precipitaţii Vânt Presiune Umiditate
    00:00 +8°C° 0.8 mm 6 m/s 750 mmHg 95%
    01:00 +7°C° 1.8 mm 6 m/s 749 mmHg 95%
    02:00 +5°C° 1.8 mm 6 m/s 749 mmHg 95%
    03:00 +6°C° 1.8 mm 5 m/s 748 mmHg 95%
    04:00 +5°C° 1 mm 5 m/s 748 mmHg 92%
    05:00 +3°C° 1 mm 5 m/s 747 mmHg 89%
    06:00 +2°C° 1 mm 5 m/s 747 mmHg 87%
    07:00 +2°C° 0 mm 5 m/s 747 mmHg 86%
    08:00 +2°C° 0 mm 5 m/s 748 mmHg 85%
    09:00 +2°C° 0 mm 5 m/s 748 mmHg 85%
    10:00 +2°C° 0 mm 5 m/s 748 mmHg 81%
    11:00 +3°C° 0 mm 6 m/s 749 mmHg 78%
    12:00 +3°C° 0 mm 6 m/s 749 mmHg 75%
    13:00 +3°C° 0 mm 5 m/s 749 mmHg 76%
    14:00 +3°C° 0 mm 5 m/s 749 mmHg 77%
    15:00 +3°C° 0 mm 5 m/s 749 mmHg 78%
    16:00 +2°C° 0 mm 5 m/s 749 mmHg 79%
    17:00 +2°C° 0 mm 5 m/s 750 mmHg 80%
    18:00 +1°C° 0 mm 5 m/s 750 mmHg 81%
    19:00 +1°C° 0 mm 5 m/s 751 mmHg 82%
    20:00 +1°C° 0 mm 5 m/s 751 mmHg 84%
    21:00 0°C° 0 mm 5 m/s 751 mmHg 85%
    22:00 0°C° 0 mm 5 m/s 752 mmHg 85%
    23:00 0°C° 0 mm 5 m/s 752 mmHg 85%

    27 Ianuarie, Duminică

    Timp Temperatura Precipitaţii Vânt Presiune Umiditate
    00:00 0°C° 0 mm 5 m/s 752 mmHg 85%
    01:00 -1°C° 0 mm 5 m/s 753 mmHg 84%
    02:00 -1°C° 0 mm 4 m/s 753 mmHg 84%
    03:00 -2°C° 0 mm 4 m/s 753 mmHg 83%
    04:00 -2°C° 0 mm 4 m/s 753 mmHg 83%
    05:00 -2°C° 0 mm 4 m/s 753 mmHg 83%
    06:00 -2°C° 0 mm 3 m/s 754 mmHg 83%
    07:00 -1°C° 0 mm 3 m/s 754 mmHg 82%
    08:00 -1°C° 0 mm 3 m/s 754 mmHg 80%
    09:00 -1°C° 0 mm 3 m/s 754 mmHg 79%
    10:00 0°C° 0 mm 3 m/s 754 mmHg 73%
    11:00 +2°C° 0 mm 3 m/s 754 mmHg 68%
    12:00 +3°C° 0 mm 3 m/s 754 mmHg 62%
    13:00 +3°C° 0 mm 3 m/s 754 mmHg 65%
    14:00 +4°C° 0 mm 3 m/s 754 mmHg 68%
    15:00 +4°C° 0 mm 3 m/s 753 mmHg 71%
    16:00 +4°C° 0 mm 2 m/s 753 mmHg 77%
    17:00 +3°C° 0 mm 2 m/s 753 mmHg 82%
    18:00 +2°C° 0 mm 2 m/s 754 mmHg 87%
    19:00 +1°C° 0 mm 2 m/s 754 mmHg 88%
    20:00 +1°C° 0 mm 2 m/s 754 mmHg 89%
    21:00 -1°C° 0 mm 2 m/s 754 mmHg 90%
    22:00 -1°C° 0 mm 2 m/s 754 mmHg 90%
    23:00 -1°C° 0 mm 2 m/s 754 mmHg 90%
    Arată mai mult